| time (UTC) | temp F | wind direction | speed MPH | gust MPH | rain 1hr in | rain 24hr in | rain mn in | humidity % | barometer mb |
| 20260502184803 | 61 | 347 | 4.0 | 10.0 | 0.00 | 0.00 | 0.08 | 17 | 1024.8 |
| 20260502183802 | 61 | 93 | 2.0 | 6.0 | 0.00 | 0.00 | 0.08 | 18 | 1024.9 |
| 20260502182803 | 60 | 30 | 4.0 | 8.0 | 0.00 | 0.00 | 0.08 | 16 | 1025.1 |
| 20260502181804 | 59 | 28 | 0.0 | 9.0 | 0.00 | 0.00 | 0.08 | 18 | 1025.2 |
| 20260502163503 | 55 | 24 | 5.0 | 7.0 | 0.00 | 0.00 | 0.08 | 24 | 1025.9 |
| 20260502161403 | 56 | 360 | 4.0 | 8.0 | 0.00 | 0.00 | 0.08 | 23 | 1026.0 |
| 20260502160403 | 57 | 80 | 3.0 | 9.0 | 0.00 | 0.00 | 0.07 | 23 | 1026.1 |
| 20260502151405 | 51 | 360 | 2.0 | 10.0 | 0.00 | 0.00 | 0.04 | 31 | 1026.1 |
| 20260502150403 | 49 | 329 | 2.0 | 10.0 | 0.00 | 0.00 | 0.03 | 32 | 1026.3 |
| 20260502130303 | 39 | 298 | 4.0 | 12.0 | 0.00 | 0.00 | 0.02 | 48 | 1025.9 |
| 20260502123303 | 40 | 360 | 2.0 | 10.0 | 0.00 | 0.00 | 0.02 | 47 | 1025.6 |
| 20260502121203 | 40 | 360 | 2.0 | 10.0 | 0.00 | 0.00 | 0.02 | 47 | 1025.3 |
| 20260502120203 | 40 | 217 | 1.0 | 10.0 | 0.00 | 0.00 | 0.02 | 47 | 1025.3 |
| 20260502114103 | 40 | 229 | 1.0 | 13.0 | 0.00 | 0.00 | 0.02 | 47 | 1025.1 |
| 20260502113104 | 40 | 360 | 2.0 | 14.0 | 0.00 | 0.00 | 0.02 | 48 | 1025.1 |
| 20260502111004 | 40 | 281 | 2.0 | 10.0 | 0.00 | 0.00 | 0.02 | 48 | 1025.1 |
| 20260502110002 | 40 | 360 | 0.0 | 8.0 | 0.00 | 0.00 | 0.02 | 48 | 1025.1 |
| 20260502105003 | 40 | 203 | 3.0 | 10.0 | 0.00 | 0.00 | 0.02 | 48 | 1025.2 |
| 20260502104004 | 41 | 360 | 2.0 | 9.0 | 0.00 | 0.00 | 0.02 | 48 | 1025.1 |
| 20260502103002 | 41 | 360 | 2.0 | 8.0 | 0.00 | 0.00 | 0.02 | 48 | 1024.9 |
| 20260502102003 | 41 | 360 | 1.0 | 9.0 | 0.00 | 0.00 | 0.02 | 47 | 1025.1 |
| 20260502101003 | 41 | 360 | 2.0 | 8.0 | 0.00 | 0.00 | 0.02 | 48 | 1024.9 |
| 20260502091003 | 43 | 360 | 2.0 | 14.0 | 0.00 | 0.00 | 0.02 | 48 | 1024.4 |
| 20260502070803 | 43 | 360 | 2.0 | 12.0 | 0.00 | 0.00 | 0.00 | 54 | 1024.0 |
| 20260502065804 | 43 | 360 | 2.0 | 8.0 | 0.00 | 0.00 | 0.00 | 53 | 1024.0 |
| 20260502064803 | 44 | 360 | 2.0 | 10.0 | 0.00 | 0.00 | 0.00 | 52 | 1024.0 |
| 20260502063803 | 44 | 265 | 4.0 | 10.0 | 0.00 | 0.00 | 0.00 | 53 | 1024.0 |
| 20260502062804 | 45 | 346 | 0.0 | 6.0 | 0.00 | 0.00 | 0.00 | 53 | 1024.1 |
| 20260502060704 | 45 | 83 | 3.0 | 10.0 | 0.00 | 0.00 | 0.15 | 52 | 1024.1 |
| 20260502055705 | 46 | 232 | 5.0 | 16.0 | 0.00 | 0.00 | 0.15 | 52 | 1024.1 |
| 20260502054703 | 46 | 185 | 4.0 | 16.0 | 0.00 | 0.00 | 0.15 | 51 | 1024.3 |
| 20260502053704 | 46 | 213 | 5.0 | 10.0 | 0.00 | 0.00 | 0.15 | 51 | 1024.1 |
| 20260502052704 | 46 | 152 | 3.0 | 10.0 | 0.00 | 0.00 | 0.15 | 50 | 1024.0 |
| 20260502051703 | 46 | 257 | 4.0 | 9.0 | 0.00 | 0.00 | 0.15 | 49 | 1024.0 |
| 20260502050705 | 46 | 206 | 3.0 | 10.0 | 0.00 | 0.00 | 0.15 | 50 | 1023.9 |
| 20260502045704 | 46 | 360 | 2.0 | 9.0 | 0.00 | 0.00 | 0.15 | 49 | 1023.7 |
| 20260502044702 | 46 | 137 | 4.0 | 9.0 | 0.00 | 0.00 | 0.15 | 49 | 1023.7 |
| 20260502043703 | 47 | 360 | 2.0 | 10.0 | 0.00 | 0.00 | 0.14 | 48 | 1023.7 |
| 20260502042703 | 47 | 160 | 3.0 | 9.0 | 0.00 | 0.00 | 0.14 | 49 | 1023.5 |
| 20260502041704 | 46 | 119 | 4.0 | 10.0 | 0.00 | 0.00 | 0.14 | 49 | 1023.3 |
| 20260502040704 | 46 | 271 | 2.0 | 10.0 | 0.00 | 0.00 | 0.14 | 48 | 1023.2 |
| 20260502035703 | 46 | 360 | 3.0 | 9.0 | 0.00 | 0.00 | 0.14 | 48 | 1023.2 |
| 20260502033607 | 46 | 150 | 2.0 | 3.0 | 0.00 | 0.00 | 0.14 | 46 | 1022.8 |
| 20260502030403 | 47 | 151 | 0.0 | 2.0 | 0.00 | 0.00 | 0.14 | 44 | 1022.4 |
| 20260502022103 | 49 | 120 | 0.0 | 0.0 | 0.00 | 0.00 | 0.14 | 42 | 1021.5 |
| 20260502021103 | 50 | 350 | 0.0 | 0.0 | 0.00 | 0.00 | 0.14 | 40 | 1021.2 |
| 20260502020104 | 50 | 350 | 0.0 | 0.0 | 0.00 | 0.00 | 0.14 | 39 | 1021.1 |
| 20260502015103 | 50 | 350 | 0.0 | 0.0 | 0.00 | 0.00 | 0.14 | 37 | 1020.9 |
| 20260502014103 | 51 | 350 | 0.0 | 0.0 | 0.00 | 0.00 | 0.14 | 37 | 1020.8 |
| 20260502012003 | 51 | 350 | 0.0 | 0.0 | 0.00 | 0.00 | 0.14 | 34 | 1020.5 |
| 20260502011002 | 51 | 350 | 0.0 | 0.0 | 0.00 | 0.00 | 0.14 | 34 | 1020.5 |
| 20260502010003 | 51 | 350 | 4.0 | 6.0 | 0.00 | 0.00 | 0.14 | 34 | 1020.5 |
| 20260502005003 | 51 | 330 | 2.0 | 9.0 | 0.00 | 0.00 | 0.14 | 34 | 1020.5 |
| 20260502004004 | 51 | 6 | 4.0 | 9.0 | 0.00 | 0.00 | 0.14 | 35 | 1020.4 |
| 20260502003002 | 51 | 0 | 2.0 | 9.0 | 0.00 | 0.00 | 0.14 | 37 | 1020.3 |
| 20260502002003 | 51 | 325 | 3.0 | 9.0 | 0.00 | 0.00 | 0.14 | 37 | 1020.3 |
| 20260502001004 | 52 | 328 | 1.0 | 7.0 | 0.00 | 0.00 | 0.14 | 36 | 1020.1 |
| 20260502000002 | 52 | 1 | 0.0 | 10.0 | 0.00 | 0.00 | 0.14 | 36 | 1019.9 |
| 20260501235003 | 51 | 13 | 1.0 | 3.0 | 0.00 | 0.00 | 0.14 | 37 | 1019.9 |
| 20260501234007 | 51 | 330 | 2.0 | 6.0 | 0.00 | 0.00 | 0.14 | 38 | 1019.9 |
| 20260501233002 | 51 | 360 | 4.0 | 9.0 | 0.00 | 0.00 | 0.14 | 38 | 1020.0 |
| 20260501232003 | 50 | 306 | 5.0 | 10.0 | 0.00 | 0.00 | 0.14 | 41 | 1019.9 |
| 20260501231003 | 50 | 360 | 3.0 | 9.0 | 0.00 | 0.00 | 0.14 | 43 | 1019.7 |
| 20260501230004 | 51 | 339 | 4.0 | 9.0 | 0.00 | 0.00 | 0.14 | 41 | 1019.6 |
| 20260501225006 | 51 | 360 | 5.0 | 10.0 | 0.00 | 0.00 | 0.14 | 43 | 1019.6 |
| 20260501224003 | 52 | 347 | 1.0 | 7.0 | 0.00 | 0.00 | 0.14 | 40 | 1019.5 |
| 20260501221904 | 52 | 360 | 3.0 | 7.0 | 0.00 | 0.00 | 0.14 | 32 | 1019.6 |
| 20260501220902 | 53 | 360 | 1.0 | 9.0 | 0.00 | 0.00 | 0.14 | 31 | 1019.5 |
| 20260501215903 | 55 | 360 | 3.0 | 9.0 | 0.00 | 0.00 | 0.14 | 29 | 1019.3 |
| 20260501214903 | 54 | 30 | 5.0 | 11.0 | 0.00 | 0.00 | 0.14 | 29 | 1019.3 |
| 20260501212804 | 54 | 350 | 1.0 | 9.0 | 0.00 | 0.00 | 0.14 | 31 | 1019.5 |
| 20260501211802 | 54 | 31 | 2.0 | 11.0 | 0.00 | 0.00 | 0.14 | 30 | 1019.6 |
| 20260501210803 | 56 | 37 | 5.0 | 9.0 | 0.00 | 0.00 | 0.14 | 27 | 1019.3 |
| 20260501205803 | 56 | 360 | 3.0 | 9.0 | 0.00 | 0.00 | 0.14 | 27 | 1019.5 |
| 20260501204804 | 55 | 354 | 4.0 | 11.0 | 0.00 | 0.00 | 0.14 | 30 | 1019.5 |
| 20260501203803 | 54 | 7 | 6.0 | 9.0 | 0.00 | 0.00 | 0.14 | 31 | 1019.6 |
| 20260501202803 | 54 | 360 | 5.0 | 9.0 | 0.00 | 0.00 | 0.14 | 28 | 1019.6 |
| 20260501201804 | 53 | 319 | 2.0 | 8.0 | 0.00 | 0.00 | 0.14 | 28 | 1019.7 |
| 20260501200802 | 52 | 21 | 0.0 | 9.0 | 0.00 | 0.00 | 0.14 | 31 | 1019.9 |
| 20260501194703 | 50 | 13 | 6.0 | 15.0 | 0.00 | 0.00 | 0.14 | 34 | 1019.9 |
| 20260501193703 | 50 | 24 | 5.0 | 17.0 | 0.00 | 0.00 | 0.14 | 34 | 1019.7 |
| 20260501191603 | 53 | 24 | 6.0 | 13.0 | 0.00 | 0.00 | 0.14 | 32 | 1019.7 |